| time (UTC) | temp F | wind direction | speed knots | gust knots | rain 1hr in | rain 24hr in | rain mn in | humidity % | barometer mb |
| 20260503040045 | 59 | 162 | 0.0 | 0.9 | 0.00 | 0.00 | 0.00 | 75 | 1021.3 |
| 20260503034605 | 57 | 176 | 0.0 | 0.9 | 0.00 | 0.00 | 0.00 | 79 | 1021.1 |
| 20260503033016 | 56 | 182 | 0.0 | 0.0 | 0.00 | 0.00 | 0.00 | 76 | 1021.0 |
| 20260503031537 | 57 | 183 | 0.0 | 0.0 | 0.00 | 0.00 | 0.00 | 75 | 1020.9 |
| 20260503030006 | 57 | 173 | 0.0 | 0.0 | 0.00 | 0.00 | 0.00 | 75 | 1020.7 |
| 20260503024519 | 58 | 153 | 0.0 | 0.0 | 0.00 | 0.00 | 0.00 | 73 | 1020.5 |
| 20260503023045 | 59 | 155 | 0.0 | 0.0 | 0.00 | 0.00 | 0.00 | 75 | 1020.4 |
| 20260503021554 | 60 | 161 | 0.0 | 0.0 | 0.00 | 0.00 | 0.00 | 72 | 1020.0 |
| 20260503020007 | 62 | 193 | 0.0 | 0.0 | 0.00 | 0.00 | 0.00 | 68 | 1019.7 |
| 20260503014526 | 63 | 145 | 0.0 | 0.0 | 0.00 | 0.00 | 0.00 | 65 | 1019.6 |
| 20260503013046 | 65 | 186 | 0.0 | 0.9 | 0.00 | 0.00 | 0.00 | 60 | 1019.6 |
| 20260503011500 | 66 | 188 | 0.0 | 1.7 | 0.00 | 0.00 | 0.00 | 58 | 1019.4 |
| 20260503010016 | 68 | 175 | 0.0 | 1.7 | 0.00 | 0.00 | 0.00 | 56 | 1019.3 |
| 20260503004537 | 69 | 186 | 0.9 | 3.5 | 0.00 | 0.00 | 0.00 | 53 | 1019.2 |
| 20260503003056 | 70 | 176 | 1.7 | 5.2 | 0.00 | 0.00 | 0.00 | 50 | 1019.1 |
| 20260503001511 | 71 | 193 | 2.6 | 6.1 | 0.00 | 0.00 | 0.00 | 48 | 1019.1 |
| 20260503000026 | 71 | 172 | 2.6 | 6.1 | 0.00 | 0.00 | 0.00 | 48 | 1019.1 |
| 20260502234608 | 71 | 131 | 2.6 | 6.1 | 0.00 | 0.00 | 0.00 | 47 | 1019.2 |
| 20260502233102 | 72 | 182 | 2.6 | 7.0 | 0.00 | 0.00 | 0.00 | 45 | 1019.2 |
| 20260502231512 | 72 | 184 | 3.5 | 8.7 | 0.00 | 0.00 | 0.00 | 47 | 1019.2 |
| 20260502230033 | 72 | 146 | 3.5 | 9.6 | 0.00 | 0.00 | 0.00 | 46 | 1019.1 |
| 20260502224550 | 72 | 165 | 3.5 | 8.7 | 0.00 | 0.00 | 0.00 | 44 | 1019.1 |
| 20260502223030 | 72 | 153 | 2.6 | 10.4 | 0.00 | 0.00 | 0.00 | 47 | 1019.0 |
| 20260502221504 | 72 | 155 | 3.5 | 6.1 | 0.00 | 0.00 | 0.00 | 48 | 1019.1 |
| 20260502220032 | 72 | 139 | 3.5 | 13.0 | 0.00 | 0.00 | 0.00 | 46 | 1019.3 |
| 20260502214550 | 71 | 151 | 5.2 | 10.4 | 0.00 | 0.02 | 0.00 | 47 | 1019.3 |
| 20260502213009 | 71 | 179 | 4.3 | 13.9 | 0.00 | 0.02 | 0.00 | 47 | 1019.5 |
| 20260502211523 | 71 | 179 | 4.3 | 11.3 | 0.00 | 0.02 | 0.00 | 51 | 1019.6 |
| 20260502210041 | 71 | 177 | 2.6 | 11.3 | 0.00 | 0.02 | 0.00 | 50 | 1019.9 |
| 20260502204602 | 71 | 162 | 4.3 | 9.6 | 0.00 | 0.14 | 0.00 | 47 | 1020.1 |
| 20260502203008 | 71 | 151 | 2.6 | 13.9 | 0.00 | 0.14 | 0.00 | 50 | 1020.2 |
| 20260502201538 | 70 | 166 | 4.3 | 11.3 | 0.00 | 0.14 | 0.00 | 49 | 1020.4 |
| 20260502200034 | 70 | 188 | 3.5 | 7.8 | 0.00 | 0.14 | 0.00 | 56 | 1020.5 |
| 20260502194547 | 69 | 153 | 4.3 | 8.7 | 0.00 | 0.15 | 0.00 | 55 | 1020.6 |
| 20260502193006 | 69 | 204 | 5.2 | 10.4 | 0.00 | 0.15 | 0.00 | 55 | 1020.7 |
| 20260502191506 | 69 | 147 | 4.3 | 10.4 | 0.00 | 0.15 | 0.00 | 57 | 1020.7 |
| 20260502190024 | 69 | 166 | 4.3 | 11.3 | 0.00 | 0.15 | 0.00 | 56 | 1020.8 |
| 20260502184549 | 69 | 159 | 4.3 | 12.2 | 0.00 | 0.16 | 0.00 | 59 | 1020.9 |
| 20260502183101 | 68 | 145 | 4.3 | 9.6 | 0.00 | 0.16 | 0.00 | 59 | 1021.0 |
| 20260502181521 | 68 | 154 | 4.3 | 13.9 | 0.00 | 0.16 | 0.00 | 57 | 1021.3 |
| 20260502163046 | 64 | 172 | 3.5 | 8.7 | 0.00 | 0.47 | 0.00 | 65 | 1022.5 |
| 20260502161603 | 63 | 155 | 4.3 | 8.7 | 0.00 | 0.47 | 0.00 | 65 | 1022.5 |
| 20260502151508 | 60 | 144 | 3.5 | 6.1 | 0.00 | 0.50 | 0.00 | 70 | 1022.1 |
| 20260502123100 | 51 | 159 | 2.6 | 7.0 | 0.00 | 0.72 | 0.00 | 86 | 1020.0 |
| 20260502121529 | 51 | 192 | 2.6 | 7.0 | 0.00 | 0.72 | 0.00 | 87 | 1019.7 |
| 20260502114603 | 50 | 195 | 2.6 | 7.0 | 0.00 | 1.18 | 0.00 | 87 | 1019.2 |
| 20260502113022 | 50 | 184 | 2.6 | 7.0 | 0.00 | 1.18 | 0.00 | 87 | 1019.1 |
| 20260502111538 | 51 | 224 | 2.6 | 6.1 | 0.00 | 1.18 | 0.00 | 88 | 1019.1 |
| 20260502110056 | 51 | 196 | 2.6 | 7.0 | 0.00 | 1.18 | 0.00 | 88 | 1019.0 |
| 20260502104521 | 51 | 150 | 3.5 | 7.8 | 0.00 | 1.26 | 0.00 | 88 | 1018.7 |
| 20260502103029 | 51 | 166 | 3.5 | 9.6 | 0.00 | 1.26 | 0.00 | 88 | 1018.6 |
| 20260502101604 | 51 | 183 | 2.6 | 6.1 | 0.00 | 1.26 | 0.00 | 88 | 1018.4 |
| 20260502071505 | 52 | 181 | 3.5 | 7.8 | 0.00 | 1.57 | 0.00 | 86 | 1017.0 |
| 20260502070038 | 53 | 108 | 4.3 | 9.6 | 0.00 | 1.57 | 0.00 | 86 | 1017.1 |
| 20260502064548 | 53 | 184 | 2.6 | 7.8 | 0.00 | 1.58 | 0.00 | 86 | 1017.2 |
| 20260502063127 | 53 | 167 | 2.6 | 7.0 | 0.00 | 1.58 | 0.00 | 85 | 1017.1 |
| 20260502061513 | 53 | 165 | 2.6 | 9.6 | 0.00 | 1.58 | 0.00 | 85 | 1017.1 |
| 20260502060038 | 53 | 169 | 3.5 | 7.8 | 0.00 | 1.58 | 0.00 | 85 | 1017.2 |
| 20260502054600 | 53 | 187 | 4.3 | 8.7 | 0.00 | 1.60 | 0.00 | 85 | 1016.8 |
| 20260502053004 | 54 | 176 | 5.2 | 15.6 | 0.00 | 1.60 | 0.00 | 84 | 1016.3 |
| 20260502051522 | 54 | 174 | 4.3 | 11.3 | 0.00 | 1.60 | 0.00 | 84 | 1016.6 |
| 20260502050041 | 54 | 185 | 4.3 | 15.6 | 0.00 | 1.60 | 0.00 | 84 | 1017.0 |
| 20260502044555 | 54 | 202 | 5.2 | 13.9 | 0.00 | 1.62 | 1.60 | 84 | 1016.7 |
| 20260502043015 | 54 | 338 | 4.3 | 12.2 | 0.00 | 1.62 | 1.60 | 84 | 1016.6 |
| 20260502041553 | 54 | 180 | 6.1 | 13.9 | 0.00 | 1.62 | 1.60 | 85 | 1016.7 |